• în România
  • Lista ţărilor
  • Pe 7 zile
  • Temperatura apei
  • Hartă satelitară
  • Meteo pe hartă
  • Widget-uri
  • user-avatar
    Intrare

    Meteo pe oră la Lugovoe

    Astăzi, 20 Mai, Duminică

    Timp Temperatura Precipitaţii Vânt Presiune Umiditate
    00:00 +13°C° 0 mm 2 m/s 744 mmHg 96%
    01:00 +12°C° 0 mm 2 m/s 744 mmHg 96%
    02:00 +12°C° 0 mm 2 m/s 745 mmHg 97%
    03:00 +10°C° 0 mm 2 m/s 745 mmHg 97%
    04:00 +10°C° 0 mm 2 m/s 745 mmHg 96%
    05:00 +11°C° 0 mm 3 m/s 746 mmHg 96%
    06:00 +11°C° 0 mm 3 m/s 746 mmHg 95%
    07:00 +12°C° 0 mm 3 m/s 746 mmHg 93%
    08:00 +13°C° 0 mm 2 m/s 747 mmHg 91%
    09:00 +14°C° 0 mm 2 m/s 747 mmHg 89%
    10:00 +15°C° 0 mm 2 m/s 747 mmHg 87%
    11:00 +15°C° 0 mm 2 m/s 747 mmHg 85%
    12:00 +16°C° 0 mm 2 m/s 748 mmHg 84%
    13:00 +16°C° 0,1 mm 3 m/s 748 mmHg 82%
    14:00 +17°C° 0,1 mm 3 m/s 748 mmHg 80%
    15:00 +17°C° 0,1 mm 3 m/s 748 mmHg 78%
    16:00 +17°C° 0,1 mm 4 m/s 748 mmHg 80%
    17:00 +17°C° 0,1 mm 4 m/s 748 mmHg 81%
    18:00 +16°C° 0,1 mm 5 m/s 749 mmHg 82%
    19:00 +15°C° 0 mm 5 m/s 749 mmHg 83%
    20:00 +14°C° 0 mm 5 m/s 749 mmHg 84%
    21:00 +13°C° 0 mm 5 m/s 750 mmHg 85%
    22:00 +13°C° 0 mm 5 m/s 750 mmHg 83%
    23:00 +12°C° 0 mm 5 m/s 750 mmHg 81%

    Mâine, 21 Mai, Luni

    Timp Temperatura Precipitaţii Vânt Presiune Umiditate
    00:00 +12°C° 0 mm 5 m/s 750 mmHg 80%
    01:00 +12°C° 0 mm 5 m/s 751 mmHg 80%
    02:00 +10°C° 0 mm 5 m/s 751 mmHg 80%
    03:00 +10°C° 0 mm 5 m/s 751 mmHg 80%
    04:00 +10°C° 0,1 mm 5 m/s 751 mmHg 81%
    05:00 +9°C° 0,1 mm 6 m/s 752 mmHg 81%
    06:00 +9°C° 0,1 mm 6 m/s 752 mmHg 82%
    07:00 +10°C° 0,1 mm 6 m/s 752 mmHg 80%
    08:00 +10°C° 0,1 mm 7 m/s 753 mmHg 78%
    09:00 +10°C° 0,1 mm 7 m/s 753 mmHg 75%
    10:00 +11°C° 0 mm 7 m/s 753 mmHg 74%
    11:00 +11°C° 0 mm 7 m/s 753 mmHg 73%
    12:00 +12°C° 0 mm 7 m/s 753 mmHg 71%
    13:00 +12°C° 0 mm 7 m/s 753 mmHg 70%
    14:00 +14°C° 0 mm 7 m/s 753 mmHg 69%
    15:00 +15°C° 0 mm 7 m/s 753 mmHg 68%
    16:00 +15°C° 0 mm 7 m/s 753 mmHg 69%
    17:00 +15°C° 0 mm 6 m/s 753 mmHg 71%
    18:00 +15°C° 0 mm 6 m/s 753 mmHg 72%
    19:00 +14°C° 0 mm 6 m/s 753 mmHg 73%
    20:00 +14°C° 0 mm 6 m/s 753 mmHg 74%
    21:00 +13°C° 0 mm 5 m/s 754 mmHg 75%
    22:00 +13°C° 0 mm 6 m/s 754 mmHg 75%
    23:00 +13°C° 0 mm 6 m/s 754 mmHg 76%

    Poimâine, 22 Mai, Marţi

    Timp Temperatura Precipitaţii Vânt Presiune Umiditate
    00:00 +13°C° 0 mm 6 m/s 754 mmHg 76%
    01:00 +13°C° 0,2 mm 6 m/s 754 mmHg 77%
    02:00 +12°C° 0,2 mm 5 m/s 754 mmHg 79%
    03:00 +12°C° 0,2 mm 5 m/s 754 mmHg 81%
    04:00 +12°C° 0,1 mm 5 m/s 754 mmHg 81%
    05:00 +12°C° 0,1 mm 5 m/s 754 mmHg 81%
    06:00 +10°C° 0,1 mm 5 m/s 754 mmHg 82%
    07:00 +13°C° 0 mm 6 m/s 754 mmHg 81%
    08:00 +14°C° 0 mm 6 m/s 755 mmHg 80%
    09:00 +15°C° 0 mm 6 m/s 755 mmHg 80%
    10:00 +16°C° 0 mm 6 m/s 755 mmHg 79%
    11:00 +17°C° 0 mm 6 m/s 755 mmHg 78%
    12:00 +19°C° 0 mm 6 m/s 755 mmHg 78%
    13:00 +19°C° 0 mm 5 m/s 754 mmHg 78%
    14:00 +20°C° 0 mm 5 m/s 754 mmHg 78%
    15:00 +20°C° 0 mm 4 m/s 754 mmHg 79%
    16:00 +20°C° 0 mm 3 m/s 754 mmHg 81%
    17:00 +20°C° 0 mm 2 m/s 754 mmHg 83%
    18:00 +20°C° 0 mm 2 m/s 754 mmHg 85%
    19:00 +19°C° 0,1 mm 2 m/s 754 mmHg 87%
    20:00 +19°C° 0,1 mm 2 m/s 754 mmHg 89%
    21:00 +18°C° 0,1 mm 2 m/s 754 mmHg 92%
    22:00 +18°C° 0,5 mm 2 m/s 754 mmHg 93%
    23:00 +17°C° 0,5 mm 2 m/s 754 mmHg 94%

    23 Mai, Miercuri

    Timp Temperatura Precipitaţii Vânt Presiune Umiditate
    00:00 +17°C° 0,5 mm 2 m/s 754 mmHg 95%
    01:00 +16°C° 0,1 mm 2 m/s 754 mmHg 95%
    02:00 +16°C° 0,1 mm 2 m/s 754 mmHg 96%
    03:00 +15°C° 0,1 mm 2 m/s 754 mmHg 96%
    04:00 +15°C° 0,1 mm 2 m/s 754 mmHg 95%
    05:00 +16°C° 0,1 mm 2 m/s 754 mmHg 95%
    06:00 +16°C° 0,1 mm 2 m/s 754 mmHg 94%
    07:00 +17°C° 0 mm 2 m/s 754 mmHg 90%
    08:00 +19°C° 0 mm 2 m/s 754 mmHg 86%
    09:00 +20°C° 0 mm 2 m/s 754 mmHg 82%
    10:00 +21°C° 0,2 mm 2 m/s 754 mmHg 78%
    11:00 +24°C° 0,2 mm 2 m/s 754 mmHg 74%
    12:00 +25°C° 0,2 mm 2 m/s 754 mmHg 71%
    13:00 +25°C° 0,5 mm 3 m/s 753 mmHg 68%
    14:00 +26°C° 0,5 mm 3 m/s 753 mmHg 65%
    15:00 +26°C° 0,5 mm 3 m/s 753 mmHg 62%
    16:00 +26°C° 0,2 mm 3 m/s 752 mmHg 66%
    17:00 +26°C° 0,2 mm 3 m/s 752 mmHg 69%
    18:00 +26°C° 0,2 mm 2 m/s 751 mmHg 72%
    19:00 +24°C° 0,1 mm 2 m/s 751 mmHg 77%
    20:00 +21°C° 0,1 mm 2 m/s 751 mmHg 81%
    21:00 +21°C° 0,1 mm 1 m/s 751 mmHg 86%
    22:00 +19°C° 0,3 mm 2 m/s 751 mmHg 88%
    23:00 +19°C° 0,3 mm 2 m/s 751 mmHg 90%

    24 Mai, Joi

    Timp Temperatura Precipitaţii Vânt Presiune Umiditate
    00:00 +18°C° 0,3 mm 2 m/s 751 mmHg 92%
    01:00 +18°C° 0,4 mm 2 m/s 750 mmHg 93%
    02:00 +18°C° 0,4 mm 2 m/s 750 mmHg 94%
    03:00 +18°C° 0,4 mm 2 m/s 750 mmHg 94%
    04:00 +18°C° 0,1 mm 2 m/s 750 mmHg 94%
    05:00 +18°C° 0,1 mm 2 m/s 749 mmHg 94%
    06:00 +18°C° 0,1 mm 2 m/s 749 mmHg 94%
    07:00 +20°C° 0,6 mm 2 m/s 749 mmHg 89%
    08:00 +21°C° 0,6 mm 2 m/s 749 mmHg 85%
    09:00 +23°C° 0,6 mm 2 m/s 749 mmHg 80%
    10:00 +23°C° 0,7 mm 2 m/s 749 mmHg 77%
    11:00 +24°C° 0,7 mm 3 m/s 749 mmHg 74%
    12:00 +23°C° 0,7 mm 4 m/s 749 mmHg 71%
    13:00 +23°C° 0,9 mm 4 m/s 748 mmHg 71%
    14:00 +23°C° 0,9 mm 4 m/s 748 mmHg 70%
    15:00 +23°C° 0,9 mm 4 m/s 748 mmHg 70%
    16:00 +24°C° 0,2 mm 3 m/s 748 mmHg 72%
    17:00 +24°C° 0,2 mm 3 m/s 747 mmHg 74%
    18:00 +24°C° 0,2 mm 2 m/s 747 mmHg 75%
    19:00 +23°C° 0,2 mm 2 m/s 747 mmHg 78%
    20:00 +20°C° 0,2 mm 2 m/s 747 mmHg 81%
    21:00 +19°C° 0,2 mm 2 m/s 747 mmHg 84%
    22:00 +19°C° 0,8 mm 2 m/s 747 mmHg 85%
    23:00 +18°C° 0,8 mm 2 m/s 747 mmHg 87%

    25 Mai, Vineri

    Timp Temperatura Precipitaţii Vânt Presiune Umiditate
    00:00 +18°C° 0,8 mm 2 m/s 747 mmHg 88%
    01:00 +18°C° 0,1 mm 1 m/s 747 mmHg 89%
    02:00 +18°C° 0,1 mm 1 m/s 747 mmHg 90%
    03:00 +16°C° 0,1 mm 1 m/s 747 mmHg 90%
    04:00 +18°C° 0,1 mm 1 m/s 748 mmHg 90%
    05:00 +18°C° 0,1 mm 1 m/s 748 mmHg 90%
    06:00 +17°C° 0,1 mm 2 m/s 748 mmHg 90%
    07:00 +18°C° 0,2 mm 3 m/s 748 mmHg 89%
    08:00 +19°C° 0,2 mm 4 m/s 749 mmHg 88%
    09:00 +20°C° 0,2 mm 4 m/s 749 mmHg 87%
    10:00 +20°C° 0,5 mm 5 m/s 749 mmHg 85%
    11:00 +20°C° 0,5 mm 6 m/s 750 mmHg 84%
    12:00 +20°C° 0,5 mm 6 m/s 750 mmHg 83%
    13:00 +20°C° 0,3 mm 7 m/s 751 mmHg 83%
    14:00 +18°C° 0,3 mm 7 m/s 751 mmHg 84%
    15:00 +17°C° 0,3 mm 8 m/s 752 mmHg 85%
    16:00 +16°C° 0 mm 7 m/s 752 mmHg 85%
    17:00 +15°C° 0 mm 7 m/s 752 mmHg 85%
    18:00 +14°C° 0 mm 7 m/s 753 mmHg 85%
    19:00 +12°C° 0 mm 7 m/s 753 mmHg 84%
    20:00 +11°C° 0 mm 7 m/s 754 mmHg 83%
    21:00 +11°C° 0 mm 7 m/s 755 mmHg 82%
    22:00 +10°C° 0 mm 7 m/s 755 mmHg 82%
    23:00 +10°C° 0 mm 7 m/s 755 mmHg 82%
    Arată mai mult